Voltar ao catálogo

CZ-4C DEB

AtivoSSO
NORAD 38658·DEBRIS·🇨🇳 China

Lançado Dec 15, 2009 de Taiyuan Satellite Launch Center

Loading…

Próximas Passagens (próximas 24 horas)

TLE

AtualizadoSource: Space-Track

Época: Sep 13, 2026, 13:45 UTC

1 38658U 09072F   26256.57341633  .00000375  00000-0  12351-2 0  9990
2 38658 100.5934 179.2763 0134578 245.9398 237.0996 13.05472038789459

Acompanhe CZ-4C DEB em tempo real com AllMySat

Download on the App Store